Weather History for KEHO - April, 2013

Change the Weather History Date:

Friday, April 19, 2013

  Actual Average (KHKY) Record (KHKY)
Temperature  
Mean Temperature 64 °F -  
Max Temperature 75 °F 71 °F 88 °F (1976)
Min Temperature 53 °F 47 °F 28 °F (1983)
Degree Days  
Heating Degree Days 1    
Growing Degree Days 14 (Base 50)    
Moisture  
Dew Point 60 °F    
Average Humidity 84    
Maximum Humidity 93    
Minimum Humidity 65    
Precipitation  
Precipitation 0.50 in - - ()
Sea Level Pressure  
Sea Level Pressure 29.86 in    
Wind  
Wind Speed 11 mph (South)    
Max Wind Speed 21 mph    
Max Gust Speed 32 mph    
Visibility 10 miles    
Events Rain    
Averages and records for this station are not official NWS values.
T = Trace of Precipitation, MM = Missing Value Source: NWS Daily Summary

Daily Weather History Graph

Daily Weather History Graph

Search for Another Location

Airport or City:

Trip Planner

Search our weather history database for the weather conditions in past years. The results will help you decide how hot, cold, wet, or windy it might be!

Date:

Astronomy

Apr. 19, 2013 Rise Set
Actual Time 6:48 AM EDT 8:02 PM EDT
Civil Twilight 6:22 AM EDT 8:29 PM EDT
Nautical Twilight 5:50 AM EDT 9:00 PM EDT
Astronomical Twilight 5:18 AM EDT 9:33 PM EDT
Moon 1:59 PM EDT (4/19) 2:49 AM EDT (4/19)
Length of Visible Light 14h 06m
Length of Day
13h 13m
First Quarter, 61% of the Moon is Illuminated
Apr 19
First Quarter
Apr 25
Full
May 2
Last Quarter
May 9
New
May 18
First Quarter

Hourly Weather History & Observations

Time (EDT) Temp. Dew Point Humidity Pressure Visibility Wind Dir Wind Speed Gust Speed Precip Events Conditions
12:15 AM 68.9 °F 59.9 °F 73% 29.99 in 10.0 mi SSE 13.8 mph - N/A   Mostly Cloudy
12:35 AM 68.0 °F 59.9 °F 75% 29.99 in 10.0 mi SSE 9.2 mph - N/A   Scattered Clouds
12:55 AM 67.3 °F 60.1 °F 78% 29.98 in 10.0 mi SSE 6.9 mph - N/A   Clear
1:15 AM 67.3 °F 60.3 °F 78% 29.98 in 10.0 mi SSE 9.2 mph 18.4 mph N/A   Mostly Cloudy
1:35 AM 67.1 °F 60.6 °F 80% 29.97 in 10.0 mi SSE 6.9 mph - N/A   Overcast
1:55 AM 67.1 °F 60.8 °F 80% 29.96 in 10.0 mi SSE 9.2 mph 16.1 mph N/A   Overcast
2:15 AM 66.4 °F 60.8 °F 82% 29.95 in 10.0 mi SSE 9.2 mph 16.1 mph N/A   Overcast
2:35 AM 66.2 °F 60.8 °F 83% 29.94 in 10.0 mi SSE 8.1 mph - N/A   Overcast
2:55 AM 66.2 °F 61.2 °F 84% 29.93 in 10.0 mi SSE 8.1 mph - N/A   Overcast
3:15 AM 65.8 °F 61.3 °F 85% 29.92 in 10.0 mi South 6.9 mph - N/A   Overcast
3:35 AM 65.7 °F 61.7 °F 87% 29.92 in 10.0 mi South 9.2 mph - N/A Rain Light Rain
3:55 AM 65.7 °F 61.7 °F 87% 29.92 in 10.0 mi SSE 8.1 mph - N/A   Overcast
4:15 AM 65.8 °F 62.1 °F 88% 29.91 in 10.0 mi South 10.4 mph 17.3 mph N/A   Overcast
4:35 AM 65.8 °F 62.1 °F 88% 29.90 in 10.0 mi South 8.1 mph 16.1 mph N/A   Overcast
4:55 AM 65.8 °F 62.2 °F 88% 29.89 in 10.0 mi SSE 11.5 mph 16.1 mph N/A   Overcast
5:15 AM 65.8 °F 62.2 °F 88% 29.88 in 10.0 mi South 11.5 mph 18.4 mph N/A   Mostly Cloudy
5:35 AM 65.5 °F 62.2 °F 89% 29.88 in 10.0 mi South 9.2 mph - N/A   Mostly Cloudy
5:55 AM 65.3 °F 62.6 °F 91% 29.88 in 10.0 mi South 10.4 mph - N/A   Mostly Cloudy
6:15 AM 65.3 °F 62.6 °F 91% 29.89 in 10.0 mi South 10.4 mph - N/A   Mostly Cloudy
6:35 AM 65.3 °F 62.6 °F 91% 29.88 in 10.0 mi South 10.4 mph - N/A   Overcast
6:55 AM 65.3 °F 62.6 °F 91% 29.88 in 10.0 mi South 9.2 mph - N/A   Overcast
7:15 AM 65.5 °F 62.6 °F 90% 29.89 in 10.0 mi South 10.4 mph - N/A   Overcast
7:35 AM 65.7 °F 62.8 °F 90% 29.89 in 10.0 mi South 6.9 mph - N/A   Overcast
7:55 AM 66.2 °F 62.8 °F 89% 29.90 in 10.0 mi South 9.2 mph - N/A   Overcast
8:15 AM 66.4 °F 62.8 °F 88% 29.90 in 10.0 mi South 6.9 mph - N/A   Overcast
8:35 AM 67.1 °F 63.3 °F 88% 29.91 in 10.0 mi SSW 13.8 mph 18.4 mph N/A   Overcast
8:55 AM 67.6 °F 63.1 °F 85% 29.89 in 10.0 mi South 12.7 mph 19.6 mph N/A   Overcast
9:15 AM 68.9 °F 63.7 °F 83% 29.88 in 10.0 mi South 11.5 mph 17.3 mph N/A   Mostly Cloudy
9:35 AM 68.9 °F 63.5 °F 83% 29.87 in 10.0 mi South 12.7 mph 18.4 mph N/A   Mostly Cloudy
9:55 AM 69.1 °F 63.5 °F 82% 29.88 in 10.0 mi South 10.4 mph 23.0 mph N/A   Mostly Cloudy
10:35 AM 71.2 °F 63.3 °F 76% 29.86 in 10.0 mi SSW 16.1 mph 23.0 mph N/A   Mostly Cloudy
10:55 AM 70.7 °F 63.5 °F 78% 29.86 in 10.0 mi South 8.1 mph 17.3 mph N/A   Overcast
11:15 AM 72.5 °F 63.7 °F 74% 29.84 in 10.0 mi SSE 8.1 mph 20.7 mph N/A   Overcast
11:35 AM 72.7 °F 63.7 °F 73% 29.84 in 10.0 mi South 13.8 mph 20.7 mph N/A   Mostly Cloudy
11:55 AM 73.0 °F 63.7 °F 72% 29.82 in 10.0 mi South 11.5 mph 20.7 mph N/A   Overcast
12:15 PM 73.4 °F 63.0 °F 70% 29.80 in 10.0 mi South 11.5 mph 19.6 mph N/A   Overcast
12:35 PM 74.3 °F 63.0 °F 68% 29.80 in 10.0 mi South 13.8 mph 19.6 mph N/A   Mostly Cloudy
12:55 PM 75.2 °F 62.8 °F 65% 29.79 in 10.0 mi South 18.4 mph 32.2 mph N/A   Mostly Cloudy
1:15 PM 74.5 °F 62.2 °F 66% 29.77 in 10.0 mi South 12.7 mph 24.2 mph N/A   Overcast
1:35 PM 74.3 °F 62.8 °F 67% 29.77 in 10.0 mi South 13.8 mph 20.7 mph N/A Rain Light Rain
1:55 PM 73.0 °F 63.5 °F 72% 29.78 in 10.0 mi South 12.7 mph 19.6 mph N/A   Overcast
2:15 PM 73.8 °F 63.7 °F 71% 29.79 in 10.0 mi SSW 12.7 mph 21.9 mph N/A   Overcast
2:35 PM 71.1 °F 64.8 °F 80% 29.81 in 3.0 mi SW 17.3 mph 27.6 mph 0.11 in Rain Rain
2:55 PM 69.8 °F 65.7 °F 87% 29.81 in 7.0 mi SW 12.7 mph 18.4 mph 0.15 in Rain Rain
3:15 PM 69.6 °F 65.5 °F 87% 29.80 in 10.0 mi SW 12.7 mph 19.6 mph 0.02 in Rain Light Rain
3:35 PM 69.3 °F 65.5 °F 88% 29.80 in 7.0 mi SW 13.8 mph 20.7 mph 0.02 in   Drizzle
3:55 PM 68.9 °F 65.8 °F 90% 29.79 in 4.0 mi SSW 11.5 mph - 0.08 in Rain Rain
4:15 PM 67.8 °F 65.7 °F 93% 29.81 in 2.0 mi SW 18.4 mph 25.3 mph 0.15 in Rain Rain
4:35 PM 66.2 °F 63.5 °F 91% 29.80 in 7.0 mi SW 20.7 mph 27.6 mph 0.18 in Rain Light Rain
4:55 PM 65.3 °F 62.8 °F 92% 29.80 in 10.0 mi SW 19.6 mph 25.3 mph 0.22 in Rain Light Rain
5:15 PM 65.3 °F 62.6 °F 91% 29.80 in 10.0 mi SW 12.7 mph 21.9 mph 0.03 in Rain Light Rain
5:35 PM 64.0 °F 61.2 °F 90% 29.78 in 10.0 mi SSW 11.5 mph - 0.03 in Rain Light Rain
5:55 PM 63.7 °F 61.3 °F 92% 29.79 in 10.0 mi SSW 10.4 mph - 0.03 in   Mostly Cloudy
6:15 PM 63.0 °F 60.6 °F 92% 29.78 in 10.0 mi South 11.5 mph - N/A Rain Light Rain
6:35 PM 62.2 °F 59.5 °F 91% 29.78 in 10.0 mi SSW 10.4 mph 17.3 mph N/A   Mostly Cloudy
6:55 PM 61.9 °F 56.8 °F 84% 29.78 in 10.0 mi South 13.8 mph 20.7 mph N/A Rain Light Rain
7:15 PM 60.8 °F 56.1 °F 85% 29.78 in 10.0 mi SSW 13.8 mph 18.4 mph N/A   Light Drizzle
7:35 PM 60.1 °F 55.2 °F 84% 29.79 in 10.0 mi SSW 17.3 mph 20.7 mph N/A Rain Light Rain
7:55 PM 57.9 °F 52.7 °F 83% 29.78 in 10.0 mi South 10.4 mph 17.3 mph N/A   Overcast
8:15 PM 56.5 °F 51.8 °F 84% 29.80 in 10.0 mi SSW 12.7 mph 19.6 mph 0.02 in   Mostly Cloudy
8:35 PM 55.9 °F 52.3 °F 88% 29.82 in 10.0 mi SSW 9.2 mph - 0.02 in   Scattered Clouds
8:55 PM 55.4 °F 52.7 °F 91% 29.82 in 10.0 mi SSW 8.1 mph - 0.02 in   Mostly Cloudy
9:15 PM 55.4 °F 52.7 °F 91% 29.85 in 10.0 mi SSW 11.5 mph 17.3 mph N/A   Mostly Cloudy
9:35 PM 55.0 °F 52.3 °F 91% 29.84 in 10.0 mi SSW 5.8 mph 16.1 mph N/A   Scattered Clouds
9:55 PM 54.7 °F 52.2 °F 91% 29.86 in 10.0 mi SSW 8.1 mph - N/A   Mostly Cloudy
10:15 PM 54.5 °F 51.8 °F 91% 29.87 in 10.0 mi SSW 9.2 mph - N/A   Mostly Cloudy
10:35 PM 54.1 °F 50.9 °F 89% 29.90 in 10.0 mi SW 10.4 mph 17.3 mph N/A   Mostly Cloudy
10:55 PM 53.8 °F 50.7 °F 89% 29.90 in 10.0 mi SW 8.1 mph - N/A   Scattered Clouds
11:15 PM 53.2 °F 50.5 °F 91% 29.91 in 10.0 mi SW 9.2 mph - N/A   Scattered Clouds
11:35 PM 53.1 °F 50.4 °F 91% 29.92 in 10.0 mi WSW 8.1 mph - N/A   Clear
11:55 PM 53.1 °F 49.6 °F 88% 29.92 in 10.0 mi West 8.1 mph - N/A   Clear